EUTELSAT KONNECT VHTS

Last updated on Tue Sep 22 2026 00:03:15 GMT+0000 (Coordinated Universal Time)

1 53765U 22110A 26264.20454275 .00000013 00000+0 00000+0 0 9993 2 53765 0.0553 103.9934 0002807 45.5058 286.9710 1.00270552 7792
UTC large
Height (km)
Speed (km/s)
/
Latitude / Longitude
Inclination (degrees)
Orbital Period (minutes)
Azimuth
Elevation
Range (km)
Doppler Factor

Next 0 passes for location: London (51.5072 / 0.1276)

No passes found over London.
EUTELSAT KONNECT VHTS